Flag for U.S.A. Weather past 2 weeks in St. Louis, Missouri, U.S.A.

Now
34 °F

Overcast.


Feels Like: 31 °F
Forecast: 29 / 38 °F
Wind: 3 mph from Northeast

Location: Lambert-St. Louis International Airport

Current Time: Dec 19, 2014 at 5:57:11 AM

Latest Report: Dec 19, 2014 at 4:51 AM


Visibility: 7 mi

Pressure: 30.31 "Hg

Humidity: 73%

Dew point: 26 °F

Location of St. LouisLocation

Historic Weather in St. Louis — Graph

°F

St. Louis temperature yesterday

Maximum temperature yesterday: 36 °F (at 1:51 PM)
Minimum temperature yesterday: 30 °F (at 3:51 AM)
Average temperature yesterday: 33 °F

Past Weeks' High & Low Weather Summary

 TemperatureHumidityPressure
High63 °F (Dec 14, 2:51 PM)96% (Dec 4, 6:51 PM)30.63 "Hg (Dec 4, 6:51 PM)
Low30 °F (Dec 7, 5:51 AM)56% (Dec 12, 1:51 PM)29.65 "Hg (Dec 15, 3:51 PM)
Average40 °F76%30.25 "Hg
* Reported Dec 4 4:51 AM — Dec 19 4:51 AM, St. Louis, Weather by CustomWeather, © 2014

Note: Actual official high and low records may vary slightly from our data, if they occured in-between our weather recording intervals... More about our weather records

Advertising

St. Louis weather history for previous 24 hours

 ConditionsComfort  
Time TempWeatherWind HumidityBarometerVisibility
4:51 AM
Dec 19
34 °FOvercast.3 mph73%30.31 "Hg7 mi
3:51 AM33 °FOvercast.No wind75%30.32 "Hg7 mi
2:51 AM33 °FOvercast.No wind75%30.32 "Hg8 mi
1:51 AM34 °FOvercast.5 mph73%30.30 "Hg8 mi
12:51 AM34 °FOvercast.3 mph73%30.31 "Hg9 mi
11:51 PM
Dec 18
34 °FOvercast.3 mph70%30.32 "Hg9 mi
10:51 PM34 °FMostly cloudy.No wind70%30.33 "Hg10 mi
9:51 PM34 °FMostly cloudy.5 mph70%30.32 "Hg10 mi
8:51 PM34 °FMostly cloudy.5 mph70%30.31 "Hg10 mi
7:51 PM35 °FOvercast.6 mph64%30.31 "Hg10 mi
6:51 PM35 °FOvercast.6 mph67%30.29 "Hg10 mi
5:51 PM35 °FMostly cloudy.7 mph70%30.28 "Hg8 mi
4:51 PM36 °FMostly cloudy.5 mph70%30.27 "Hg7 mi
3:51 PM36 °FMostly cloudy.No wind67%30.27 "Hg8 mi
2:51 PM36 °FMostly cloudy.No wind67%30.26 "Hg7 mi
1:51 PM36 °FMostly cloudy.No wind70%30.26 "Hg7 mi
12:51 PM35 °FCloudy.3 mph72%30.27 "Hg7 mi
11:51 AM33 °FLight snow. Mostly cloudy.3 mph75%30.30 "Hg6 mi
11:02 AM32 °FLight snow. Mostly cloudy.5 mph80%30.29 "Hg4 mi
10:51 AM33 °FLight snow. Mostly cloudy.3 mph75%30.33 "Hg6 mi
9:57 AM30 °FLight snow. Mostly cloudy.5 mph80%30.32 "Hg4 mi
8:51 AM30 °FLight snow. Overcast.6 mph79%30.34 "Hg6 mi
7:51 AM30 °FLight snow. Overcast.3 mph79%30.33 "Hg3 mi
6:51 AM30 °FLight snow. Overcast.No wind79%30.32 "Hg7 mi
5:51 AM30 °FLight snow. Overcast.No wind75%30.32 "Hg9 mi
Weather by CustomWeather, © 2014

See weather overviewHow to use our weather pages